{"data":{"norad_id":43194,"epoch":"2026-05-25T04:12:21.957696Z","epoch_age_seconds":60666,"freshness":"FRESH","line1":"1 43194U 18015C   26145.17525414  .00005799  00000+0  26385-3 0  9999","line2":"2 43194  97.6856 310.3810 0015847 348.4474  11.6394 15.21017076461149","mean_motion":15.21017076,"eccentricity":0.0015847,"inclination_deg":97.6856,"raan_deg":310.381,"arg_perigee_deg":348.4474,"mean_anomaly_deg":11.6394,"bstar":0.00026385,"rev_number":46114,"period_min":94.673493330327,"perigee_km":491.86730358735,"apogee_km":513.6756549215,"semimajor_km":6880.9084792544,"source":"CELESTRAK","updated_at":"2026-05-25T13:38:24.646079Z"}}